Cloud_Cover
5 5 99 0 5 5 5 5 6 5 5 3 5 74 5 0 5 5 0 5 0 0 0 0 5 0 1 1 87 100 100 100 100 100 100 100 5 2 2 9 0 0 0 0
10 45 7 5 5 5 5 5 13 5 5 2 5 98 82 0 1 4 1 0 0 0 0 0 0 0 48 41 30 97 100 100 86 86 56 10 8 0 0 0 0 1 2 0
5 23 20 5 5 5 5 5 10 5 18 5 8 89 100 9 0 0 0 2 2 5 5 21 91 62 4 5 5 0 7 23 16 17 4 8 1 3 3 0 0 0 0 0
6 53 82 5 24 7 4 5 5 5 5 21 81 27 100 67 5 6 5 5 5 5 24 57 67 25 94 99 100 93 100 100 92 56 100 100 81 37 1 0 0 0 0 0
70 99 73 49 98 5 5 5 5 5 5 5 98 16 94 100 100 65 13 6 28 65 99 100 100 100 100 100 100 100 100 100 99 4 0 45 54 1 39 5 5 1 2 5
27 59 48 99 99 17 12 93 97 6 5 19 100 71 15 100 100 100 98 99 100 100 60 100 100 100 100 100 100 100 100 99 26 9 5 2 13 26 5 2 5 3 5 20
100 100 91 61 100 100 70 63 5 5 6 13 99 33 69 97 100 100 100 100 100 100 100 100 100 100 100 100 100 100 100 60 56 27 6 5 4 5 5 5 5 54 76 90
81 99 100 100 100 100 76 32 54 5 6 5 11 88 99 80 86 100 100 100 100 100 100 48 98 100 100 100 100 100 100 99 54 5 4 5 5 5 5 5 5 67 83 60
26 44 99 100 100 98 80 20 100 73 12 5 5 72 100 100 100 100 100 100 100 100 100 100 100 100 100 94 24 57 68 5 5 0 0 0 2 5 68 23 5 7 3 4
100 14 5 49 100 100 100 100 100 100 18 5 52 70 83 100 100 100 100 100 100 100 100 100 100 100 100 86 89 93 25 5 5 5 6 5 5 9 80 5 5 1 5 5
100 100 100 31 71 100 100 100 100 100 79 93 82 8 100 85 100 100 100 100 100 100 100 100 100 100 100 100 100 100 100 51 7 13 6 18 6 25 5 5 5 5 4 5
100 100 100 100 100 100 77 68 100 100 100 34 7 72 100 100 100 100 100 100 100 100 100 100 100 100 100 100 100 100 92 6 89 100 45 22 100 12 5 5 5 24 5 3
100 100 100 100 99 100 100 100 100 100 100 100 62 88 92 100 100 100 100 100 100 100 100 100 100 100 100 100 97 5 6 7 90 73 5 5 5 5 5 36 46 32 38 4
100 98 62 53 100 100 100 100 100 100 91 100 84 100 100 100 100 100 100 100 100 100 100 100 100 100 100 27 20 76 80 18 5 3 5 33 5 5 62 94 92 8 0 0
100 95 100 96 100 96 73 90 100 100 100 35 95 100 100 100 100 99 100 100 100 100 55 100 100 100 100 75 90 11 5 5 4 5 5 10 5 8 100 88 12 0 0 0
100 100 100 100 100 100 100 74 100 94 100 100 100 74 100 100 100 100 100 100 100 100 100 45 85 21 62 71 15 27 31 5 32 5 13 12 5 68 97 50 0 0 0 0
100 100 100 100 98 100 100 52 22 100 100 100 94 95 100 100 100 100 100 100 100 57 86 100 100 77 5 54 94 68 5 8 5 15 1 5 48 86 99 2 0 0 0 0
100 100 100 100 100 100 12 8 79 99 100 100 93 88 100 98 99 97 100 82 71 85 74 82 16 50 87 56 5 5 57 49 100 91 9 97 27 83 5 3 0 0 0 0
100 100 100 100 100 98 12 10 66 100 77 100 100 100 100 81 67 95 100 100 100 86 72 99 71 15 5 21 72 65 76 100 10 97 17 24 99 5 0 0 0 0 0 0
100 100 100 100 100 95 6 78 100 100 77 100 100 100 100 100 100 99 39 54 47 99 99 74 70 71 84 100 100 100 100 66 86 8 80 83 5 5 5 0 0 0 0 0
100 100 100 100 100 100 99 100 100 100 85 100 100 100 100 77 66 80 100 100 100 100 96 77 100 100 100 100 100 100 99 74 30 89 12 4 5 5 0 0 0 5 3 4
100 100 100 100 100 100 96 100 100 100 100 100 100 100 100 100 100 100 100 100 100 100 100 100 100 100 100 100 100 90 52 100 100 8 5 5 5 0 3 5 5 5 5 5
100 100 100 100 100 100 100 100 100 100 100 100 100 100 100 100 100 100 100 100 100 100 100 100 100 100 100 100 100 98 100 100 64 5 5 5 5 5 5 5 4 1 5 5
100 100 100 100 100 100 100 100 100 100 100 100 100 100 100 100 100 100 100 100 100 100 100 100 100 100 100 94 100 100 99 5 5 5 5 5 5 5 5 4 2 1 2 5
100 100 100 100 100 100 100 100 100 100 100 100 100 100 100 100 100 100 100 100 100 100 100 100 90 90 100 100 100 37 5 5 5 5 5 5 5 5 4 1 0 2 5 5
100 100 100 100 100 100 100 100 100 100 100 100 94 100 97 74 100 100 100 100 100 100 94 96 100 100 99 86 46 5 5 5 5 5 5 5 4 0 0 0 4 5 5 92